Find Thelma

NORAD ID: 26091 Int'l Des: 2000-004 Owner: SCU Country: US operational
LEOCIRCULARRETROGRADE

实时位置

正在加载3D地球...

关于 Thelma

正在加载描述...

即将过境

Passes for default location (London). Set your location on the main map for personalized predictions.

高度历史

Loading altitude history...

两行轨道根数

1 26091U 00004J 26107.23626676 .00001319 00000-0 28940-3 0 9996
2 26091 100.1755 206.2620 0025104 132.2237 228.1092 14.59733661381538
Epoch: Apr 17, 2026 • Age: 10 hours

当前状态

高度 698.5 km
速度 7.51 km/s
星下点 53.10°N, 110.41°E
发射日期 Jan 27, 2000
运行时间 26.2 years
类型 other

技术详情

分类 Payload
质量 0.50 kg
干质量 0.50 kg
总质量 0.50 kg
长度 0.03 m
直径 0.20 m
跨度 0.20 m
形状 Box
制造商 SCU
平台类型 Picosat
阶段状态 In Orbit
所有者/国家 SCU/US

Most Searched